Location: Oklahoma City
(35.4680°N, 97.5160°W)
Time: 17:18:58
(UTC-06:00)

ISS - All Passes

Search period start: 17 December 2017 00:00
Search period end: 27 December 2017 00:00
Orbit: 402 x 406 km, 51.6° (Epoch: 18 December)

Date Brightness Start Highest point End Pass type
(mag) Time Alt. Az. Time Alt. Az. Time Alt. Az.
17 Dec - 10:27:32 10° SW 10:30:48 81° SE 10:34:05 10° NE daylight
17 Dec - 12:05:54 10° WNW 12:07:39 14° NNW 12:09:24 10° N daylight
17 Dec - 16:58:07 10° NNW 17:00:55 25° NNE 17:03:43 10° E daylight
17 Dec - 18:34:31 10° WNW 18:37:22 27° SW 18:40:11 10° S visible
18 Dec - 09:35:37 10° SSW 09:38:38 35° SE 09:41:41 10° ENE daylight
18 Dec - 11:12:35 10° W 11:15:11 21° NNW 11:17:47 10° NNE daylight
18 Dec - 16:06:22 10° NNW 16:08:28 16° NNE 16:10:34 10° ENE daylight
18 Dec - 17:41:58 10° NW 17:45:13 60° SW 17:48:27 10° SE visible
19 Dec - 08:44:17 10° S 08:46:31 17° SE 08:48:46 10° E daylight
19 Dec - 10:19:42 10° WSW 10:22:47 36° NW 10:25:52 10° NNE daylight
19 Dec - 15:15:13 10° N 15:15:56 10° NNE 15:16:38 10° NE daylight
19 Dec - 16:49:42 10° NW 16:52:58 61° NE 16:56:12 10° ESE daylight
19 Dec - 18:28:43 10° WSW 18:29:02 10° SW 18:29:19 10° SW visible
20 Dec - 09:27:12 10° SW 09:30:28 76° NW 09:33:44 10° NE daylight
20 Dec - 11:06:09 10° NW 11:07:25 12° NNW 11:08:42 10° N daylight
20 Dec - 15:57:38 10° NNW 16:00:37 31° NE 16:03:35 10° E daylight
20 Dec - 17:34:24 10° WNW 17:36:57 21° SW 17:39:30 10° S daylight
21 Dec - 08:35:04 10° SSW 08:38:13 47° SE 08:41:24 10° ENE daylight
21 Dec - 10:12:32 10° WNW 10:14:52 18° NNW 10:17:13 10° NNE daylight
21 Dec - 15:05:46 10° NNW 15:08:10 18° NNE 15:10:34 10° ENE daylight
21 Dec - 16:41:38 10° WNW 16:44:48 45° SW 16:47:56 10° SSE daylight
22 Dec - 07:43:27 10° S 07:46:02 22° SE 07:48:40 10° ENE daylight
22 Dec - 09:19:29 10° W 09:22:24 29° NW 09:25:21 10° NNE daylight
22 Dec - 14:14:14 10° N 14:15:36 12° NNE 14:16:59 10° NE daylight
22 Dec - 15:49:15 10° NW 15:52:33 80° NE 15:55:49 10° SE daylight
23 Dec - 06:53:11 10° SE 06:53:57 11° SE 06:54:42 10° ESE visible
23 Dec - 08:26:47 10° WSW 08:30:01 58° NW 08:33:16 10° NE daylight
23 Dec - 10:06:36 10° NNW 10:07:04 10° NNW 10:07:33 10° NNW daylight
23 Dec - 14:57:05 10° NNW 15:00:11 38° NE 15:03:17 10° ESE daylight
23 Dec - 16:34:16 10° W 16:36:25 16° SW 16:38:34 10° S daylight
24 Dec - 07:34:28 10° SW 07:37:42 63° SE 07:40:58 10° NE daylight
24 Dec - 09:12:25 10° WNW 09:14:27 15° NNW 09:16:30 10° N daylight
24 Dec - 14:05:06 10° NNW 14:07:44 22° NNE 14:10:21 10° E daylight
24 Dec - 15:41:14 10° WNW 15:44:16 34° SW 15:47:15 10° SSE daylight
25 Dec - 06:42:36 10° SSW 06:45:28 28° SE 06:48:20 10° ENE visible
25 Dec - 08:19:10 10° W 08:21:55 24° NNW 08:24:41 10° NNE daylight
25 Dec - 13:13:21 10° N 13:15:10 14° NNE 13:16:58 10° ENE daylight
25 Dec - 14:48:43 10° NW 14:52:00 78° SW 14:55:15 10° SE daylight
26 Dec - 05:51:32 10° SSE 05:53:18 14° SE 05:55:04 10° E visible
26 Dec - 07:26:19 10° WSW 07:29:27 45° NW 07:32:38 10° NE daylight
26 Dec - 13:56:26 10° NW 13:59:38 48° NE 14:02:49 10° ESE daylight
26 Dec - 15:34:13 10° W 15:35:46 13° SW 15:37:20 10° SSW daylight
